Location: Aldenham
(51.6667°N, 0.3500°W)
Time: 08:46:37
(UTC+00:00)

Vanguard 2 Rocket - All Passes

Search period start: 16 February 2026 00:00
Search period end: 26 February 2026 00:00
Orbit: 553 x 3286 km, 32.9° (Epoch: 15 February)

Date Brightness Start Highest point End Pass type
(mag) Time Alt. Az. Time Alt. Az. Time Alt. Az.
16 Feb - 11:25:59 10° S 11:37:14 20° SSE 11:46:21 10° ESE daylight
16 Feb - 13:37:41 10° SW 13:51:00 29° S 14:00:11 10° ESE daylight
16 Feb - 15:53:16 10° WSW 16:03:59 27° SSW 16:11:06 10° SE daylight
16 Feb - 18:11:35 10° WSW 18:15:20 13° SW 18:18:28 10° SSW visible
17 Feb - 10:22:22 10° S 10:31:20 15° SE 10:39:14 10° ESE daylight
17 Feb - 12:31:12 10° SSW 12:45:08 28° SSE 12:55:20 10° ESE daylight
17 Feb - 14:45:48 10° WSW 14:58:43 31° S 15:07:16 10° SE daylight
17 Feb - 17:02:50 10° WSW 17:10:53 20° SSW 17:16:40 10° SSE daylight
18 Feb - 09:23:55 10° SE 09:25:30 10° SE 09:27:04 10° SE daylight
18 Feb - 11:25:27 10° SSW 11:39:05 25° SSE 11:49:53 10° ESE daylight
18 Feb - 13:38:34 10° SW 13:53:03 33° S 14:02:59 10° ESE daylight
18 Feb - 15:54:53 10° WSW 16:06:03 27° SSW 16:13:34 10° SSE daylight
18 Feb - 18:15:16 10° SW 18:17:12 11° SW 18:18:57 10° SSW visible
19 Feb - 10:20:44 10° S 10:32:59 21° SSE 10:43:32 10° ESE daylight
19 Feb - 12:31:46 10° SW 12:47:04 32° S 12:58:14 10° ESE daylight
19 Feb - 14:47:10 10° WSW 15:00:46 32° SSW 15:09:50 10° SE daylight
19 Feb - 17:05:00 10° WSW 17:12:48 19° SW 17:18:35 10° S daylight
20 Feb - 09:17:46 10° SSE 09:26:59 15° SE 09:35:35 10° ESE daylight
20 Feb - 11:25:35 10° SSW 11:40:51 30° SSE 11:52:55 10° ESE daylight
20 Feb - 13:39:42 10° WSW 13:55:02 35° S 14:05:36 10° ESE daylight
20 Feb - 15:56:38 10° WSW 16:07:59 26° SSW 16:15:47 10° SSE daylight
21 Feb - 10:20:17 10° SSW 10:34:34 26° SSE 10:46:54 10° ESE daylight
21 Feb - 12:32:39 10° SW 12:48:55 36° S 13:00:53 10° ESE daylight
21 Feb - 14:48:40 10° WSW 15:02:42 32° SSW 15:12:12 10° SE daylight
21 Feb - 17:07:27 10° WSW 17:14:33 16° SW 17:20:04 10° S daylight
22 Feb - 09:16:11 10° S 09:28:25 20° SE 09:39:50 10° ESE daylight
22 Feb - 11:26:12 10° SW 11:42:34 34° SSE 11:55:39 10° ESE daylight
22 Feb - 13:41:01 10° WSW 13:56:55 37° S 14:08:03 10° SE daylight
22 Feb - 15:58:31 10° WSW 16:09:47 24° SSW 16:17:46 10° SSE daylight
23 Feb - 08:14:11 10° SSE 08:22:31 14° SE 08:30:45 10° ESE daylight
23 Feb - 10:20:31 10° SSW 10:36:08 30° SSE 10:49:48 10° ESE daylight
23 Feb - 12:33:48 10° WSW 12:50:43 38° S 13:03:23 10° ESE daylight
23 Feb - 14:50:18 10° WSW 15:04:30 31° SSW 15:14:23 10° SE daylight
23 Feb - 17:10:27 10° WSW 17:16:08 14° SW 17:20:53 10° SSW daylight
24 Feb - 09:15:49 10° SSW 09:29:48 25° SSE 09:43:06 10° ESE daylight
24 Feb - 11:27:10 10° SW 11:44:15 38° S 11:58:11 10° ESE daylight
24 Feb - 13:42:30 10° WSW 13:58:42 37° SSW 14:10:20 10° SE daylight
24 Feb - 16:00:37 10° WSW 16:11:25 22° SW 16:19:24 10° S daylight
25 Feb - 08:12:29 10° S 08:23:44 19° SE 08:35:09 10° ESE daylight
25 Feb - 10:21:15 10° SW 10:37:39 35° SSE 10:52:22 10° ESE daylight
25 Feb - 12:35:10 10° WSW 12:52:27 40° S 13:05:42 10° ESE daylight
25 Feb - 14:52:04 10° WSW 15:06:09 29° SSW 15:16:19 10° SSE daylight
25 Feb - 17:15:05 10° WSW 17:17:35 11° SW 17:19:54 10° SW daylight
